Regional Weather Roundup
Issued by NWS Wilmington, NC

Home | Current Version | Previous Version | Text Only | Print | Product List | Glossary On
Versions: 1 2 3 4 5 6 7 8 9 10 11 12 13 14 15 16 17 18 19 20 21 22 23 24 25 26 27 28 29 30 31 32
000
ASUS42 KILM 310410
RWRILM
RWRILM
REGIONAL HOURLY WEATHER ROUNDUP
NATIONAL WEATHER SERVICE WILMINGTON NC
1200 AM EDT FRI OCT 31 2014

NOTE: "FAIR" INDICATES FEW OR NO CLOUDS BELOW 12,000 FEET WITH NO
SIGNIFICANT WEATHER AND/OR OBSTRUCTIONS TO VISIBILITY.

...............WFO WILMINGTON COUNTY WARNING AREA...............

......COASTAL NC AND SC COUNTIES......

CITY           SKY/WX    TMP DP  RH WIND       PRES   REMARKS
WILMINGTON     CLEAR     54  51  90 NE8       29.95F
SOUTHPORT      CLOUDY    58  52  82 N6        29.93F
N MYRTLE BEACH CLEAR     54  51  90 NE6       29.94F
MYRTLE BEACH   MOCLDY    59  52  77 N7        29.94F

......INLAND NC AND SC COUNTIES.......

CITY           SKY/WX    TMP DP  RH WIND       PRES   REMARKS
LUMBERTON      CLEAR     48  45  89 CALM      29.96F
ELIZABETHTOWN  CLEAR     51  47  87 CALM      29.97S
WHITEVILLE     CLEAR     53  48  83 CALM      29.95F
FLORENCE       CLEAR     53  46  77 NE6       29.96S
DARLINGTON     CLEAR     48  43  81 N3        29.97F

....................REST OF NORTH CAROLINA......................

.........EASTERN NC.........

CITY           SKY/WX    TMP DP  RH WIND       PRES   REMARKS
CAPE HATTERAS  CLEAR     60  50  69 NE10G18   29.95F
JACKSONVILLE   CLEAR     48  45  87 MISG      29.98S
MOREHEAD CITY  CLEAR     53  50  89 NE6       29.95F
KENANSVILLE    CLEAR     46  45  97 CALM      29.98F
NEW BERN       CLEAR     55  49  80 NE8       29.98F
ELIZABETH CITY CLEAR     55  46  71 N8        29.99F

.........CENTRAL NC.........

CITY           SKY/WX    TMP DP  RH WIND       PRES   REMARKS
RALEIGH DURHAM CLEAR     49  43  80 NE5       30.00S
ROCKY MOUNT    CLEAR     47  44  90 NE3       30.00F
ROANOKE RAPIDS NOT AVBL
FAYETTEVILLE   CLEAR     49  46  90 N5        29.97S
HOFFMAN        CLEAR     44  44  99 N2        29.99F

.........WESTERN NC.........

CITY           SKY/WX    TMP DP  RH WIND       PRES   REMARKS
CHARLOTTE      CLEAR     53  34  48 E5        29.98F
GREENSBORO     CLEAR     48  39  71 N6        30.00S
HICKORY        NOT AVBL
BOONE          NOT AVBL
ASHEVILLE      NOT AVBL

.....................REST OF SOUTH CAROLINA.....................

.........EASTERN SC.........

CITY           SKY/WX    TMP DP  RH WIND       PRES   REMARKS
CHARLESTON     PTCLDY    58  54  86 N3        29.92F
BEAUFORT MCAS  PTCLDY    59  56  89 CALM      29.89F
HILTON HEAD    NOT AVBL

.........CENTRAL SC.........

CITY           SKY/WX    TMP DP  RH WIND       PRES   REMARKS
COLUMBIA       CLEAR     49  45  86 CALM      29.95F
ORANGEBURG     CLEAR     53  49  86 CALM      29.95F
SUMTER SHAW    CLEAR     52  44  74 NE6       29.94F

.........WESTERN SC.........

CITY           SKY/WX    TMP DP  RH WIND       PRES   REMARKS
GREENVILLE     NOT AVBL
ROCK HILL      CLEAR     44  41  89 CALM      29.98F
ANDERSON       CLEAR     45  42  89 CALM      29.96F
CLEMSON        NOT AVBL
GREENWOOD      CLEAR     44  41  89 CALM      29.98S


...................COASTAL AND OFFSHORE REPORTS..................

................LOCAL PIERS AND NC RESERVE................


STATION/POSITION TIME  SKY/WX   TEMP    WIND        PRES    VSBY
                                AIR SEA DIR/SP/G
                 (UTC)          (F)     (DEG/KT/KT) (MB)    (MI)
JOHNY MRCER PIER 0400            60 73   10/ 12/ 17 1013.3F
NC RESRV MASNBRO 0300            60      20/  5     1014.0S
OCEAN CREST PIER 0400            58 71  360/  9/ 12 1012.7F
SPRINGMAID  PIER 0400            63 69   20/ 12/ 14 1013.6F


................COASTAL AND OFFSHORE BUOYS................


STATION/POSITION TIME  SKY/WX   TEMP    WIND        PRES    VSBY
                                AIR SEA DIR/SP/G
                 (UTC)          (F)     (DEG/KT/KT) (MB)    (MI)
DIMNDSHOAL 41025 0400            65      20/ 19/ 25 1013.1F
WVE H/P(F/S)=  5/ 6 WND WVE H/P(F/S)=  5/ 6

CAPE LOOKOUT     0300            61      20/ 13/ 16 1014.1F
ONSLOW BAY 41036 0400            65 74   30/ 17/ 21 1012.7F
WVE H/P(F/S)=  4/ 5 WND WVE H/P(F/S)=  3/ 5 SWL H/P/D(F/S/D)=  2/110/ 8

5 WRITEBCH 41038 0300            62 71   60/ 16/ 17   N/A
MASONBORO  41110 0400               71                N/A
WVE H/P(F/S)=  3/ 4 WND WVE H/P(F/S)=  3/ 4

WILM HARBR 41108 0400               71                N/A
WVE H/P(F/S)=  3/ 6 WND WVE H/P(F/S)=  3/ 6

27WRITEBCH 41037 0300            63 74   60/ 17/ 19 1013.6F
FRYING PAN 41013 0400            67 73   50/ 17/ 21 1013.0F
WVE H/P(F/S)=  4/ 6 WND WVE H/P(F/S)=  5/ 6 SWL H/P/D(F/S/D)=  2/200/10

SUNST NRSH 41024 0300            62      40/ 12/ 14 1013.8F
CAPRS NRSH 41029 0300            65      20/ 10/ 12   N/A
EDISTO     41004 0400            70 77   30/ 16/ 19 1011.3F
WVE H/P(F/S)=  4/ 6 WND WVE H/P(F/S)=  3/ 6 SWL H/P/D(F/S/D)=  2/ 9



..........OFFSHORE BUOYS BEYOND 100 NM OFFSHORE...........
.....IN A TRIANGLE---HAT TO BERMUDA TO BAHAMAS TO HAT.....


STATION/POSITION TIME  SKY/WX   TEMP    WIND        PRES    VSBY
                                AIR SEA DIR/SP/G
                 (UTC)          (F)     (DEG/KT/KT) (MB)    (MI)
150E HAT   41001 NOT AVBL
W BERMUDA  41048 0256            76 78   60/  4/  6 1011.6
WVE H/P(F/S)=  4/ 8 WND WVE H/P(F/S)=  2/ 4 SWL H/P/D(F/S/D)=  3/140/ 8

ATLANTIC S 41049 0330            80 80  140/ 14/ 17 1012.0F
WVE H/P(F/S)=  6/ 8 WND WVE H/P(F/S)=  5/ 7 SWL H/P/D(F/S/D)=  5/120/ 8

E BAHAMAS  41046 0305            81 84  100/  8/ 10 1010.4F
WVE H/P(F/S)=  5/10 WND WVE H/P(F/S)=  2/ 4 SWL H/P/D(F/S/D)=  5/110/10

NE BAHAMAS 41047 0324            78 81  140/  4/  6 1010.5F
WVE H/P(F/S)=  4/ 8 WND WVE H/P(F/S)=  2/ 4 SWL H/P/D(F/S/D)=  3/100/ 8

120E CANVRL41010 0400            78 82  200/  4/  6 1011.8F
WVE H/P(F/S)=  3/ 8 SWL H/P/D(F/S/D)=  3/120/ 8


END



USA.gov is the U.S. government's official web portal to all federal, state and local government web resources and services.